Home > Weather > Lille > Past weeks

Flag for France Past Weather in Lille, Nord-Pas-de-Calais, France — Yesterday and Last 2 Weeks

Now
70 °F

Partly sunny.


Feels Like: 70 °F
Forecast: 61 / 70 °F
Wind: 16 mph from West

Location: Lille Airport

Current Time: Jul 28, 2016 at 6:36:58 PM

Latest Report: Jul 28, 2016 at 6:00 PM


Visibility: N/A

Pressure: 29.98 "Hg

Humidity: 57%

Dew Point: 54 °F

Location of LilleLocation

Past Weather in Lille — Graph

°F

Lille Temperature Yesterday

Maximum temperature yesterday: 70 °F (at 2:30 PM)
Minimum temperature yesterday: 54 °F (at 6:00 AM)
Average temperature yesterday: 63 °F

High & Low Weather Summary for the Past Weeks

 TemperatureHumidityPressure
High90 °F (Jul 19, 3:00 PM)100% (Jul 18, 6:30 AM)30.33 "Hg (Jul 18, 6:30 AM)
Low50 °F (Jul 14, 7:00 AM)36% (Jul 19, 3:30 PM)29.83 "Hg (Jul 20, 9:30 AM)
Average68 °F71%30.11 "Hg
* Reported Jul 13 5:00 PM — Jul 28 5:30 PM, Lille, Weather by CustomWeather, © 2016

Note: Actual official high and low records may vary slightly from our data, if they occured in-between our weather recording intervals... More about our weather records

Advertising

Lille Weather History for the Previous 24 Hours

Scroll right to see more
 ConditionsComfort  
Time TempWeatherWind HumidityBarometerVisibility
5:30 PM
Thu, Jul 28
72 °FScattered clouds.14 mph57%29.98 "HgN/A
5:00 PM72 °FScattered clouds.15 mph57%29.98 "HgN/A
4:30 PM72 °FPartly sunny.13 mph57%29.98 "HgN/A
4:00 PM72 °FOvercast.14 mph53%29.98 "HgN/A
3:30 PM70 °FOvercast.13 mph57%29.98 "HgN/A
3:00 PM70 °FPartly sunny.13 mph57%30.01 "HgN/A
2:30 PM70 °FBroken clouds.16 mph57%30.01 "HgN/A
2:00 PM72 °FBroken clouds.15 mph57%30.01 "HgN/A
1:30 PM70 °FMore clouds than sun.17 mph57%30.01 "HgN/A
1:00 PM70 °FBroken clouds.13 mph57%29.98 "HgN/A
12:30 PM70 °FPartly sunny.15 mph60%29.98 "HgN/A
12:00 PM72 °FBroken clouds.18 mph57%29.98 "HgN/A
11:30 AM70 °FPartly sunny.16 mph60%29.98 "HgN/A
11:00 AM70 °FScattered clouds.15 mph60%29.98 "HgN/A
10:30 AM70 °FScattered clouds.15 mph64%29.98 "HgN/A
10:00 AM68 °FPartly sunny.14 mph69%29.98 "HgN/A
9:30 AM66 °FBroken clouds.13 mph78%29.98 "HgN/A
9:00 AM64 °FPartly sunny.12 mph83%29.98 "HgN/A
8:30 AM64 °FMostly cloudy.13 mph83%29.98 "HgN/A
8:00 AM64 °FOvercast.9 mph88%29.98 "HgN/A
7:30 AM64 °FOvercast.9 mph88%29.98 "HgN/A
7:00 AM64 °FOvercast.7 mph88%29.98 "HgN/A
6:30 AM63 °FOvercast.6 mph94%29.98 "HgN/A
6:00 AM63 °FMostly cloudy.6 mph94%29.98 "HgN/A
5:30 AM63 °FPartly cloudy.6 mph88%29.98 "HgN/A
5:00 AM64 °FMostly cloudy.7 mph88%29.98 "HgN/A
4:30 AM64 °FMostly cloudy.5 mph88%29.98 "HgN/A
4:00 AM64 °FMostly cloudy.3 mph88%29.98 "HgN/A
3:30 AM64 °FOvercast.3 mph88%30.01 "HgN/A
3:00 AM64 °FMostly cloudy.5 mph88%30.01 "HgN/A
2:30 AM64 °FMostly cloudy.5 mph88%30.01 "HgN/A
2:00 AM64 °FOvercast.6 mph88%30.01 "HgN/A
1:30 AM64 °FOvercast.8 mph83%30.01 "HgN/A
1:00 AM64 °FOvercast.8 mph88%30.01 "HgN/A
12:30 AM64 °FOvercast.10 mph88%30.04 "HgN/A
12:00 AM64 °FOvercast.8 mph88%30.01 "HgN/A
11:30 PM
Wed, Jul 27
64 °FMostly cloudy.7 mph94%30.04 "HgN/A
11:00 PM64 °FMostly cloudy.7 mph94%30.01 "HgN/A
10:30 PM66 °FMostly cloudy.7 mph88%30.01 "HgN/A
10:00 PM66 °FDrizzle. Mostly cloudy.8 mph88%30.04 "HgN/A
9:30 PM66 °FMostly cloudy.7 mph83%30.04 "HgN/A
9:00 PM66 °FMostly cloudy.6 mph83%30.04 "HgN/A
8:30 PM66 °FMostly cloudy.10 mph83%30.04 "HgN/A
8:00 PM66 °FMostly cloudy.8 mph83%30.04 "HgN/A
7:30 PM68 °FOvercast.12 mph78%30.04 "HgN/A
7:00 PM68 °FMostly cloudy.12 mph73%30.04 "HgN/A
6:30 PM68 °FOvercast.14 mph73%30.04 "HgN/A
6:00 PM68 °FMostly cloudy.9 mph73%30.04 "HgN/A
Weather by CustomWeather, © 2016

See weather overviewHow to use our weather pages